www.pogodaiklimat.ru

Погода и климат >> Архив погоды >> Казахстан >> Исатай


ПОГОДА в Исатай

  • Прогноз погоды в Исатай
  • Монитор погоды в Исатай
  • Климат города

АРХИВ ПОГОДЫ в Исатай

Время (UTC), дата Ветер
(напр.,м/с)
 
Видим.   Явления Облачность Т
(С)
Тd
(С)
f
(%)
Тe
(С)
Тes
(С)
Комфортность P
(гПа)
Po
(гПа)
Тmin
(С)
Tmax
(С)
R
(мм)
R24
(мм)
S
(см)
21 18.04 В 5 13 км ясно +13.6 -30.9 3 +12 +12 1013.4 1016.7
00 19.04 В 4 14 км ясно +10.6 -33.0 3 +9 +9 1011.9 1015.2
03 19.04 В 4 12 км ясно +12.4 -31.7 3 +11 +12 1011.2 1014.5 2
06 19.04 ЮВ 6 15 км ясно +20.6 -26.2 3 +19 +23 1011.0 1014.2
09 19.04 ЮВ 7 15 км ясно +23.7 -24.1 3 +20 +25 1010.2 1013.4
12 19.04 ЮВ 9 14 км ясно +25.0 -23.2 3 +21 +22 комфорт 1009.1 1012.3
15 19.04 ЮВ 4 15 км н/о +23.2 -24.4 3 +20 +20 1007.7 1010.9 +25.0
18 19.04 Ю 8 13 км н/о +17.7 -28.1 3 +17 +17 1009.4 1012.7 +25.0
21 19.04 СЗ 11
{17}
9000 м н/о +12.1 -31.9 3 +9 +9 1009.9 1013.2
00 20.04 СЗ 5 7000 м ?/? +10.1 -33.3 3 +8 +8 1012.7 1016.0
03 20.04 З 7 12 км н/о +7.7 -35.0 3 +4 +4 1013.4 1016.8 1
06 20.04 СЗ 10 12 км н/о +9.4 -33.8 3 +6 +6 1014.5 1017.9 7
09 20.04 СЗ 9 13 км н/о +11.5 -32.4 3 +9 +9 1015.2 1018.5
21 20.04 С 4 12 км ясно +4.5 -37.2 3 +2 +2 1019.4 1022.8
00 21.04 С 3 12 км ясно +1.5 -39.3 3 -1 -1 1020.4 1023.9
03 21.04 С 4 12 км ясно +2.3 -38.7 3 -1 -0 1020.8 1024.3 1
06 21.04 СВ 4 13 км ясно +5.6 -36.4 3 +3 +10 1021.3 1024.7
09 21.04 С 3 14 км ясно +10.1 -33.3 3 +9 +22 опасность
простуды
1020.2 1023.6
12 21.04 В 2 14 км н/о +12.8 -31.5 3 +13 +13 1018.9 1022.2
15 21.04 В 3 13 км ясно +12.3 -31.8 3 +12 +12 1017.4 1020.7 +12.8
18 21.04 Ю 1 13 км н/о +8.2 -34.6 3 +9 +9 1016.6 1020.0 +12.8
21 21.04 В 4 12 км н/о +7.4 -35.2 3 +5 +5 1014.7 1018.1
00 22.04 В 6 13 км ясно +7.7 -35.0 3 +5 +5 1011.6 1015.0
03 22.04 В 4 13 км н/о +9.3 -33.9 3 +8 +8 1009.6 1012.9 2
06 22.04 Ю 9 11 км н/о +12.8 -31.5 3 +10 +10 1007.9 1011.2
09 22.04 З 4 8000 м н/о +8.8 -34.2 3 +7 +7 1008.9 1012.2
12 22.04 ЮЗ 6 13 км ясно +9.6 -33.7 3 +7 +10 1009.8 1013.1
15 22.04 З 6 11 км н/о +8.0 -34.8 3 +5 +5 1010.8 1014.2 +13.4
18 22.04 ЮЗ 6 12 км ясно +7.2 -35.3 3 +4 +4 1013.2 1016.6 +13.4 0.8
21 22.04 З 6 11 км ясно +6.0 -36.2 3 +3 +3 1015.2 1018.6
00 23.04 ЮЗ 5 8000 м ясно +4.0 -37.5 3 +1 +1 1016.5 1019.9
03 23.04 ЮЗ 6 8000 м ясно +5.1 -36.8 3 +2 +2 1018.0 1021.4 1
06 23.04 ЮЗ 6 11 км ясно +11.5 -32.4 3 +10 +14 1018.7 1022.0 2
09 23.04 Ю 5 12 км н/о +12.1 -31.9 3 +11 +11 1017.4 1020.7
12 23.04 ЮВ 5 12 км н/о +11.7 -32.2 3 +10 +10 1015.1 1018.4
15 23.04 ЮВ 5 11 км ясно +10.9 -32.8 3 +9 +9 1012.8 1016.1 +12.1
18 23.04 В 6 9000 м ясно +9.7 -33.6 3 +7 +7 1007.2 1010.5 +12.1 0.1
21 23.04 ЮВ 8 14 км н/о +14.1 -30.6 3 +12 +12 1004.1 1007.4
00 24.04 ЮВ 8 14 км н/о +13.2 -31.2 3 +11 +11 1000.1 1003.4
03 24.04 Ю 6 12 км н/о +13.4 -31.1 3 +12 +12 1000.8 1004.1 1
06 24.04 З 9 13 км н/о +13.5 -31.0 3 +11 +11 1002.8 1006.1

 

Местоположение метеостанции Исатай (Атырауская область, Казахстан): широта 46.80 долгота 50.07 высота над уровнем моря м.

В архиве по умолчанию представлена погода в Исатай за последнюю неделю. Архивные данные за месяц целиком и за предыдущие месяцы, начиная с января 2011 года, Вы можете получить, выбрав интересующий диапазон дат из раскрывающегося списка и нажав кнопку "Ввод!".

Внимание! Время в таблицах - всемирное. Для получения местного времени необходимо прибавить поправку, которая в Исатай равна 5 ч.

Смотрите также архив погоды в соседних городах и на ближайших метеорологических станциях:

Погода в Ганюшкино (Атырауская область, Казахстан) (65 км)
Погода в Зеленге (Астраханская область, Россия) (131 км)
Погода в Атырау (Атырауская область, Казахстан) (145 км)
Погода в Махамбете (Атырауская область, Казахстан) (150 км)
Погода в Жанауштогане (Атырауская область, Казахстан) (155 км)
Погода в Досанге (Астраханская область, Россия) (163 км)
Погода в Астрахани (Астраханская область, Россия) (170 км)
Погода на Кулалы Острове (Мангистауская область, Казахстан) (199 км)
Погода в Индерборском (Атырауская область, Казахстан) (222 км)
Погода в Харабали (Астраханская область, Россия) (224 км)

Пояснения к столбцам:

Ветер - указаны скорость ветра в м/с - средняя за 10 мин, порывы в срок и между сроками (в фигурных скобках) и направление, откуда дует ветер: С - северный, СВ - северо-восточный, В - восточный, ЮВ - юго-восточный, Ю - южный, ЮЗ - юго-западный, З - западный, СЗ - северо-западный.
Видимость - горизонтальная дальность видимости в метрах или километрах. При видимости от 1 до 10 км при отсутствии осадков обычно наблюдается дымка, при ухудшении видимости до 1 км и менее - туман. В сухую погоду видимость может ухудшаться дымом, пылью или мглою.
Явления - указаны атмосферные явления, наблюдавшиеся в срок или в последний час перед сроком; фигурными скобками обозначены явления, наблюдавшиеся между сроками (за 1-3 часа до срока); квадратными скобками обозначены град или гололедные отложения с указанием их диаметра в мм.
Облачность - указаны через наклонную черту общая и нижняя облачность в баллах и высота нижней границы облаков в метрах; квадратными скобками обозначены формы облаков: Ci - перистые, Cs - перисто-слоистые, Cc - перисто-кучевые, Ac - высококучевые, As - высокослоистые, Sc - слоисто-кучевые, Ns - слоисто-дождевые, Cu - кучевые, Cb - кучево-дождевые. Подробнее классификацию облаков см. в Атласе облаков (PDF).
T - Температура воздуха - температура, измеренная на высоте 2 м над землей.
Td - Температура точки росы - температура, при понижении до которой содержащийся в воздухе водяной пар достигнет насыщения.
f - Относительная влажность воздуха - влажноcть воздуха, измеренная на высоте 2 м над землей.
Te - Эффективная температура - температура, которую ощущает одетый по сезону человек в тени. Характеристика душности погоды. При расчете учитывается влияние влажности воздуха и скорости ветра на теплоощущения человека.
Tes - Эффективная температура на солнце - температура, которую ощущает человек, с поправкой на солнечный нагрев. Характеристика знойности погоды. Зависит от высоты солнца над горизонтом, облачности и скорости ветра. Ночью, в пасмурную погоду, а также при ветре 12 м/с и более поправка равна нулю.
P - Атмосферное давление - приведенное к уровню моря атмосферное давление.
Po - Атмосферное давление - измеренное на уровне метеостанции атмосферное давление.
Tmin - Минимальная температура - минимум температуры воздуха на высоте 2 м над землей.
Tmax - Максимальная температура - максимум температуры воздуха на высоте 2 м над землей.
R - Количество осадков - Количество выпавших осадков за период времени, мм. При наведении курсора мыши на число - период времени, за который выпало указанное количество осадков.
R24 - Количество осадков - Количество выпавших осадков за 24 часа, мм.
S - Снежный покров - Высота снежного покрова, см. При наведении курсора мыши на число - состояние снежного покрова и степень покрытия местности в баллах.